Location: Unspecified
(48.5670°N, 0.0000°E)
Time: 11:30:30
(UTC+00:00)

Tiros 1 - Pass Details

Date: 26 October 2020
Orbit: 630 x 664 km, 48.4° (Epoch: 03 December)

Event Time Altitude Azimuth Distance (km) Brightness Sun altitude
Exits shadow 03:21:30 15° 125° (SE) 1,678 9.6 -32.6°
Drops below altitude 10° 03:23:27 10° 101° (E) 2,007 10.3 -32.3°
Sets 03:26:32 0° 80° (E) 2,918 11.6 -31.9°
